User: anonymous
Location: Unspecified
(0.0000°N, 0.0000°E)
Time: 12:39:03
(UTC+00:00)
Language:

PLEIADES HR1 - Orbit

View from above orbital plane
View from above orbital plane
View from above satellite
View from above satellite

Ground track
Ground track

The orbit data is extracted from the following two-line orbital elements,

1 38012U 11076F   14232.16423221  .00000065  00000-0  23842-4 0  9963
2 38012 098.1924 306.2304 0001444 085.3029 274.8343 14.58563777142424
Epoch (UTC): 20 August 2014 03:56:29
Eccentricity: 0.0001444
inclination: 98.1924°
perigee height: 697 km
apogee height: 699 km
right ascension of ascending node: 306.2304°
argument of perigee: 85.3029°
revolutions per day: 14.58563777
mean anomaly at epoch: 274.8343°
orbit number at epoch: 14242

The dashed part of the orbit path shows where the satellite is in the earth's shadow,  

DLR